EW0734 Weather Reports


Display with metric or nautical units.
time (UTC)temp
F
wind
direction
speed
MPH
gust
MPH
rain 1hr
in
rain 24hr
in
rain mn
in
humidity
%
barometer
mb
20260506181024 66 0.0 1.0 0.00 0.00 0.00 84 1008.1
20260506180025 66 0.0 5.0 0.00 0.00 0.00 84 1008.0
20260506175024 66 68 1.0 7.0 0.00 0.00 0.00 84 1008.1
20260506174045 65 68 1.0 4.0 0.00 0.00 0.00 85 1008.3
20260506173025 65 0.0 3.0 0.00 0.00 0.00 85 1008.3
20260506172024 65 68 1.0 5.0 0.00 0.00 0.00 85 1008.3
20260506171045 65 0.0 7.0 0.00 0.00 0.00 85 1008.3
20260506170024 65 0.0 3.0 0.00 0.00 0.00 85 1008.4
20260506165024 65 90 1.0 5.0 0.00 0.00 0.00 85 1008.5
20260506164024 64 68 1.0 5.0 0.00 0.00 0.00 85 1008.8
20260506163024 64 68 1.0 6.0 0.00 0.00 0.00 80 1008.8
20260506162024 63 0.0 2.0 0.00 0.00 0.00 69 1009.3
20260506161024 63 0.0 4.0 0.00 0.00 0.00 67 1009.1
20260506160024 63 0.0 3.0 0.00 0.00 0.00 73 1008.8
20260506155030 63 0.0 1.0 0.00 0.00 0.00 61 1008.9
20260506154025 62 0.0 2.0 0.00 0.00 0.00 60 1009.0
20260506153024 62 0.0 1.0 0.00 0.00 0.00 57 1009.0
20260506152024 62 0.0 2.0 0.00 0.00 0.00 66 1008.8
20260506151024 61 0.0 3.0 0.00 0.00 0.00 70 1008.8
20260506150024 61 0.0 2.0 0.00 0.00 0.00 73 1009.0
20260506145025 62 0.0 3.0 0.00 0.00 0.00 74 1009.3
20260506144024 62 0.0 2.0 0.00 0.00 0.00 78 1009.6
20260506143024 62 0.0 3.0 0.00 0.00 0.00 80 1009.6
20260506142025 62 0.0 2.0 0.00 0.00 0.00 83 1009.4
20260506141044 62 0.0 2.0 0.00 0.00 0.00 83 1009.3
20260506140024 62 0.0 1.0 0.00 0.00 0.00 83 1009.3
20260506135024 62 0.0 2.0 0.00 0.00 0.00 85 1009.1
20260506134044 62 0.0 1.0 0.00 0.00 0.00 85 1009.2
20260506133026 62 0.0 4.0 0.00 0.00 0.00 84 1009.3
20260506132026 63 0.0 1.0 0.00 0.00 0.00 83 1009.3
20260506131024 63 0.0 2.0 0.00 0.00 0.00 82 1009.5
20260506130026 63 0.0 6.0 0.00 0.00 0.00 81 1009.3
20260506125024 64 68 1.0 6.0 0.00 0.00 0.00 80 1009.3
20260506124026 64 0.0 1.0 0.00 0.00 0.00 78 1009.2
20260506123026 64 68 1.0 6.0 0.00 0.00 0.00 76 1009.0
20260506122026 65 0.0 2.0 0.00 0.00 0.00 76 1009.0
20260506121026 65 0.0 1.0 0.00 0.00 0.00 75 1009.0
20260506120027 65 68 1.0 6.0 0.00 0.00 0.00 74 1009.3
20260506115026 65 0.0 3.0 0.00 0.00 0.00 75 1009.2
20260506114028 65 0.0 3.0 0.00 0.00 0.00 74 1009.3
20260506113027 65 90 1.0 4.0 0.00 0.00 0.00 74 1009.2
20260506112026 65 0.0 3.0 0.00 0.00 0.00 74 1009.1
20260506111026 65 0.0 3.0 0.00 0.00 0.00 74 1009.0
20260506110045 0 0.0 0.0 0.00 0.00 0.00
20260506105025 0 0.0 0.0 0.00 0.00 0.00
20260506104544 0 0.0 0.0 0.00 0.00 0.00
20260506104039 0 0.0 0.0 0.00 0.00 0.00
20260506103525 0 0.0 0.0 0.00 0.00 0.00
20260506102525 0 0.0 0.0 0.00 0.00 0.00
20260506102023 0 0.0 0.0 0.00 0.00 0.00
20260506101620 0 0.0 0.0 0.00 0.00 0.00
20260506101025 0 0.0 0.0 0.00 0.00 0.00
20260506100025 0 0.0 0.0 0.00 0.00 0.00
20260506095544 0 0.0 0.0 0.00 0.00 0.00
20260506095021 0 0.0 0.0 0.00 0.00 0.00
20260506094025 0 0.0 0.0 0.00 0.00 0.00
20260506093102 0 0.0 0.0 0.00 0.00 0.00
20260506092540 0 0.0 0.0 0.00 0.00 0.00
20260506092025 0 0.0 0.0 0.00 0.00 0.00
20260506091024 0 0.0 0.0 0.00 0.00 0.00
20260506090606 0 0.0 0.0 0.00 0.00 0.00
20260506090025 0 0.0 0.0 0.00 0.00 0.00
20260506085525 0 0.0 0.0 0.00 0.00 0.00
20260506084545 0 0.0 0.0 0.00 0.00 0.00
20260506084036 0 0.0 0.0 0.00 0.00 0.00 72
20260506083611 64 135 1.0 3.0 0.00 0.00 0.00 72 1009.0
20260506082526 65 0.0 2.0 0.00 0.00 0.00 72 1009.1
20260506081526 65 0.0 3.0 0.00 0.00 0.00 71 1009.1
20260506080546 66 135 1.0 5.0 0.00 0.00 0.00 71 1009.1
20260506073527 66 0.0 3.0 0.00 0.00 0.00 69 1009.1
20260506072531 67 0.0 3.0 0.00 0.00 0.00 69 1009.0
20260506071525 67 135 1.0 5.0 0.00 0.00 0.00 68 1009.1
20260506070545 67 0.0 1.0 0.00 0.00 0.00 68 1009.2
20260506061526 68 135 1.0 4.0 0.00 0.00 0.00 64 1009.4
20260506060525 69 0.0 1.0 0.00 0.00 0.00 63 1009.5
20260506050526 71 0.0 3.0 0.00 0.00 0.00 59 1009.6
20260506044545 71 90 2.0 11.0 0.00 0.00 0.00 58 1009.7
20260506043526 71 0.0 2.0 0.00 0.00 0.00 58 1009.7
20260506042525 71 0.0 2.0 0.00 0.00 0.00 57 1009.6
20260506041525 72 68 1.0 6.0 0.00 0.00 0.00 56 1009.7
20260506040556 72 90 1.0 8.0 0.00 0.00 0.00 56 1009.8
20260506035525 72 90 1.0 5.0 0.00 0.00 0.00 56 1009.8
20260506034525 72 158 1.0 3.0 0.00 0.00 0.00 55 1009.7
20260506033525 71 0.0 3.0 0.00 0.00 0.00 55 1009.6
20260506032525 71 0.0 2.0 0.00 0.00 0.00 55 1009.6
20260506031525 71 0.0 4.0 0.00 0.00 0.00 55 1009.8
20260506030525 71 180 1.0 7.0 0.00 0.00 0.00 55 1009.7
20260506025525 71 0.0 4.0 0.00 0.00 0.00 55 1009.8
20260506024525 71 180 1.0 5.0 0.00 0.00 0.00 54 1009.8
20260506023525 71 0.0 2.0 0.00 0.00 0.00 53 1010.0
20260506022525 72 0.0 2.0 0.00 0.00 0.00 53 1010.0
20260506021525 72 0.0 1.0 0.00 0.00 0.00 52 1010.0
20260506020527 72 0.0 4.0 0.00 0.00 0.00 51 1010.0
20260506015526 72 0.0 0.0 0.00 0.00 0.00 51 1010.0
20260506014525 73 0.0 0.0 0.00 0.00 0.00 49 1009.8
20260506013526 73 0.0 2.0 0.00 0.00 0.00 48 1009.8
20260506012525 74 0.0 0.0 0.00 0.00 0.00 46 1009.7
20260506011525 74 0.0 4.0 0.00 0.00 0.00 45 1009.5
20260506010546 75 0.0 5.0 0.00 0.00 0.00 44 1009.4
20260506005526 75 0.0 4.0 0.00 0.00 0.00 44 1009.4
20260506004526 75 0.0 3.0 0.00 0.00 0.00 43 1009.1
20260506003524 76 0.0 3.0 0.00 0.00 0.00 42 1009.1
20260506002526 76 0.0 2.0 0.00 0.00 0.00 42 1009.0
20260506001545 77 0.0 4.0 0.00 0.00 0.00 40 1008.9
20260506000545 77 0.0 3.0 0.00 0.00 0.00 40 1008.8
20260505235526 77 0.0 2.0 0.00 0.00 0.00 39 1008.7
20260505234525 78 0.0 4.0 0.00 0.00 0.00 38 1008.7
20260505233525 78 0.0 1.0 0.00 0.00 0.00 37 1008.6
20260505232525 79 0.0 1.0 0.00 0.00 0.00 36 1008.7
20260505231525 79 315 1.0 5.0 0.00 0.00 0.00 35 1008.6
20260505230525 79 0.0 3.0 0.00 0.00 0.00 35 1008.6
20260505225525 80 270 1.0 6.0 0.00 0.00 0.00 33 1008.6
20260505224525 81 225 1.0 5.0 0.00 0.00 0.00 32 1008.7
20260505223544 82 293 1.0 8.0 0.00 0.00 0.00 32 1008.6
20260505222525 82 315 1.0 6.0 0.00 0.00 0.00 31 1008.4
20260505221545 82 248 1.0 5.0 0.00 0.00 0.00 33 1008.4
20260505220525 82 203 1.0 6.0 0.00 0.00 0.00 32 1008.3
20260505215525 82 0.0 2.0 0.00 0.00 0.00 32 1008.4
20260505214524 82 203 1.0 6.0 0.00 0.00 0.00 31 1008.5
20260505213545 82 270 1.0 8.0 0.00 0.00 0.00 30 1008.4
20260505212524 83 203 1.0 4.0 0.00 0.00 0.00 28 1008.2
20260505211524 84 270 2.0 8.0 0.00 0.00 0.00 30 1008.1
20260505210524 84 68 1.0 6.0 0.00 0.00 0.00 30 1008.3
20260505205524 83 90 1.0 3.0 0.00 0.00 0.00 29 1008.2
20260505204525 84 90 2.0 9.0 0.00 0.00 0.00 29 1008.4
20260505203526 84 68 2.0 11.0 0.00 0.00 0.00 28 1008.3
20260505202525 85 203 2.0 5.0 0.00 0.00 0.00 29 1008.3
20260505201524 85 270 2.0 5.0 0.00 0.00 0.00 28 1008.3
20260505200525 85 203 2.0 9.0 0.00 0.00 0.00 29 1008.4
20260505195525 87 68 2.0 11.0 0.00 0.00 0.00 29 1008.6
20260505194525 87 90 1.0 8.0 0.00 0.00 0.00 28 1008.5
20260505193524 87 90 1.0 6.0 0.00 0.00 0.00 30 1008.7
20260505192545 86 135 2.0 12.0 0.00 0.00 0.00 29 1008.9
20260505191524 86 90 1.0 7.0 0.00 0.00 0.00 30 1009.0
20260505190524 87 90 2.0 9.0 0.00 0.00 0.00 28 1009.3
20260505185524 87 90 1.0 4.0 0.00 0.00 0.00 33 1009.4
20260505184525 87 90 2.0 10.0 0.00 0.00 0.00 30 1009.7
20260505183524 87 158 1.0 9.0 0.00 0.00 0.00 31 1009.7
20260505182524 86 203 1.0 6.0 0.00 0.00 0.00 31 1009.7